| time (UTC) | temp F | wind direction | speed MPH | gust MPH | rain 1hr in | rain 24hr in | rain mn in | humidity % | barometer mb |
| 20260508115408 | 89 | 60 | 2.0 | 3.0 | 0.00 | 0.00 | 0.00 | 58 | 1009.5 |
| 20260508114906 | 89 | 42 | 4.0 | 9.0 | 0.00 | 0.00 | 0.00 | 58 | 1009.5 |
| 20260508114406 | 89 | 58 | 2.0 | 5.0 | 0.00 | 0.00 | 0.00 | 58 | 1009.1 |
| 20260508113906 | 89 | 75 | 3.0 | 3.0 | 0.00 | 0.00 | 0.00 | 58 | 1009.5 |
| 20260508113406 | 89 | 89 | 3.0 | 5.0 | 0.00 | 0.00 | 0.00 | 58 | 1009.1 |
| 20260508112906 | 89 | 62 | 2.0 | 3.0 | 0.00 | 0.00 | 0.00 | 58 | 1008.8 |
| 20260508112406 | 89 | 71 | 2.0 | 3.0 | 0.00 | 0.00 | 0.00 | 57 | 1008.8 |
| 20260508111906 | 89 | 80 | 2.0 | 3.0 | 0.00 | 0.00 | 0.00 | 57 | 1009.1 |
| 20260508111406 | 90 | 121 | 1.0 | 2.0 | 0.00 | 0.00 | 0.00 | 57 | 1008.5 |
| 20260508110906 | 90 | 42 | 3.0 | 7.0 | 0.00 | 0.00 | 0.00 | 56 | 1008.8 |
| 20260508110406 | 90 | 23 | 2.0 | 8.0 | 0.00 | 0.00 | 0.00 | 56 | 1008.5 |
| 20260508105906 | 90 | 69 | 5.0 | 8.0 | 0.00 | 0.00 | 0.00 | 56 | 1008.5 |
| 20260508105406 | 90 | 83 | 2.0 | 7.0 | 0.00 | 0.00 | 0.00 | 56 | 1008.5 |
| 20260508104906 | 91 | 64 | 7.0 | 8.0 | 0.00 | 0.00 | 0.00 | 55 | 1008.5 |
| 20260508104408 | 91 | 47 | 4.0 | 7.0 | 0.00 | 0.00 | 0.00 | 55 | 1008.5 |
| 20260508103907 | 91 | 49 | 7.0 | 9.0 | 0.00 | 0.00 | 0.00 | 55 | 1008.5 |
| 20260508103406 | 91 | 35 | 5.0 | 8.0 | 0.00 | 0.00 | 0.00 | 54 | 1008.1 |
| 20260508102906 | 91 | 71 | 7.0 | 10.0 | 0.00 | 0.00 | 0.00 | 54 | 1008.1 |
| 20260508102406 | 91 | 68 | 5.0 | 10.0 | 0.00 | 0.00 | 0.00 | 53 | 1008.1 |
| 20260508101906 | 92 | 71 | 3.0 | 10.0 | 0.00 | 0.00 | 0.00 | 53 | 1007.8 |
| 20260508101408 | 92 | 66 | 6.0 | 10.0 | 0.00 | 0.00 | 0.00 | 53 | 1007.8 |
| 20260508100906 | 92 | 59 | 5.0 | 8.0 | 0.00 | 0.00 | 0.00 | 53 | 1007.8 |
| 20260508100406 | 93 | 74 | 4.0 | 10.0 | 0.00 | 0.00 | 0.00 | 52 | 1007.8 |
| 20260508095906 | 93 | 54 | 3.0 | 6.0 | 0.00 | 0.00 | 0.00 | 52 | 1007.8 |
| 20260508095406 | 93 | 55 | 6.0 | 8.0 | 0.00 | 0.00 | 0.00 | 52 | 1007.8 |
| 20260508094906 | 94 | 46 | 3.0 | 8.0 | 0.00 | 0.00 | 0.00 | 51 | 1007.5 |
| 20260508094406 | 94 | 54 | 7.0 | 8.0 | 0.00 | 0.00 | 0.00 | 50 | 1007.5 |
| 20260508093906 | 94 | 71 | 8.0 | 9.0 | 0.00 | 0.00 | 0.00 | 50 | 1007.5 |
| 20260508093406 | 94 | 55 | 5.0 | 7.0 | 0.00 | 0.00 | 0.00 | 50 | 1007.5 |
| 20260508092906 | 95 | 57 | 6.0 | 10.0 | 0.00 | 0.00 | 0.00 | 49 | 1007.1 |
| 20260508092406 | 95 | 62 | 5.0 | 8.0 | 0.00 | 0.00 | 0.00 | 49 | 1007.1 |
| 20260508091907 | 95 | 69 | 3.0 | 9.0 | 0.00 | 0.00 | 0.00 | 48 | 1007.1 |
| 20260508091406 | 95 | 40 | 6.0 | 8.0 | 0.00 | 0.00 | 0.00 | 47 | 1006.8 |
| 20260508090908 | 96 | 49 | 8.0 | 9.0 | 0.00 | 0.00 | 0.00 | 46 | 1006.8 |
| 20260508090406 | 96 | 56 | 4.0 | 7.0 | 0.00 | 0.00 | 0.00 | 46 | 1006.8 |
| 20260508085907 | 96 | 61 | 5.0 | 6.0 | 0.00 | 0.00 | 0.00 | 46 | 1006.8 |
| 20260508085408 | 96 | 306 | 0.0 | 1.0 | 0.00 | 0.00 | 0.00 | 48 | 1006.8 |
| 20260508084906 | 96 | 293 | 1.0 | 2.0 | 0.00 | 0.00 | 0.00 | 48 | 1006.8 |
| 20260508084407 | 96 | 264 | 1.0 | 2.0 | 0.00 | 0.00 | 0.00 | 48 | 1006.8 |
| 20260508083906 | 96 | 69 | 3.0 | 5.0 | 0.00 | 0.00 | 0.00 | 48 | 1006.8 |
| 20260508083406 | 96 | 75 | 1.0 | 2.0 | 0.00 | 0.00 | 0.00 | 46 | 1006.8 |
| 20260508082906 | 97 | 69 | 4.0 | 5.0 | 0.00 | 0.00 | 0.00 | 46 | 1006.8 |
| 20260508082406 | 97 | 66 | 1.0 | 5.0 | 0.00 | 0.00 | 0.00 | 48 | 1006.4 |
| 20260508081906 | 98 | 46 | 4.0 | 9.0 | 0.00 | 0.00 | 0.00 | 47 | 1006.4 |
| 20260508081406 | 97 | 59 | 1.0 | 2.0 | 0.00 | 0.00 | 0.00 | 49 | 1006.4 |
| 20260508080907 | 97 | 48 | 0.0 | 2.0 | 0.00 | 0.00 | 0.00 | 51 | 1006.8 |
| 20260508080406 | 97 | 68 | 0.0 | 5.0 | 0.00 | 0.00 | 0.00 | 53 | 1006.4 |
| 20260508075906 | 97 | 67 | 1.0 | 5.0 | 0.00 | 0.00 | 0.00 | 52 | 1006.4 |
| 20260508075406 | 96 | 356 | 1.0 | 2.0 | 0.00 | 0.00 | 0.00 | 52 | 1006.4 |
| 20260508074908 | 96 | 78 | 1.0 | 2.0 | 0.00 | 0.00 | 0.00 | 52 | 1006.8 |
| 20260508074407 | 94 | 269 | 2.0 | 3.0 | 0.00 | 0.00 | 0.00 | 55 | 1006.4 |
| 20260508073906 | 95 | 281 | 5.0 | 8.0 | 0.00 | 0.00 | 0.00 | 55 | 1006.4 |
| 20260508073406 | 94 | 298 | 6.0 | 7.0 | 0.00 | 0.00 | 0.00 | 56 | 1006.8 |
| 20260508072906 | 95 | 286 | 5.0 | 10.0 | 0.00 | 0.00 | 0.00 | 53 | 1006.8 |
| 20260508072407 | 94 | 313 | 3.0 | 7.0 | 0.00 | 0.00 | 0.00 | 55 | 1006.8 |
| 20260508071906 | 95 | 303 | 7.0 | 10.0 | 0.00 | 0.00 | 0.00 | 56 | 1006.8 |
| 20260508071407 | 96 | 303 | 4.0 | 9.0 | 0.00 | 0.00 | 0.00 | 54 | 1006.8 |
| 20260508070907 | 96 | 65 | 1.0 | 9.0 | 0.00 | 0.00 | 0.00 | 45 | 1006.8 |
| 20260508070406 | 97 | 46 | 4.0 | 11.0 | 0.00 | 0.00 | 0.00 | 45 | 1006.4 |
| 20260508065907 | 97 | 79 | 3.0 | 11.0 | 0.00 | 0.00 | 0.00 | 45 | 1006.4 |
| 20260508065407 | 97 | 86 | 7.0 | 10.0 | 0.00 | 0.00 | 0.00 | 45 | 1006.8 |
| 20260508064906 | 97 | 103 | 7.0 | 13.0 | 0.00 | 0.00 | 0.00 | 47 | 1006.8 |
| 20260508064407 | 97 | 72 | 2.0 | 13.0 | 0.00 | 0.00 | 0.00 | 47 | 1006.8 |
| 20260508063906 | 99 | 102 | 5.0 | 10.0 | 0.00 | 0.00 | 0.00 | 46 | 1006.1 |
| 20260508063407 | 98 | 59 | 10.0 | 11.0 | 0.00 | 0.00 | 0.00 | 46 | 1006.4 |
| 20260508062907 | 99 | 55 | 3.0 | 3.0 | 0.00 | 0.00 | 0.00 | 47 | 1006.8 |
| 20260508062407 | 98 | 89 | 3.0 | 3.0 | 0.00 | 0.00 | 0.00 | 49 | 1006.8 |
| 20260508061906 | 96 | 146 | 1.0 | 5.0 | 0.00 | 0.00 | 0.00 | 52 | 1007.1 |
| 20260508061406 | 97 | 81 | 5.0 | 5.0 | 0.00 | 0.00 | 0.00 | 52 | 1006.8 |
| 20260508060906 | 97 | 130 | 1.0 | 3.0 | 0.00 | 0.00 | 0.00 | 52 | 1006.8 |
| 20260508060406 | 97 | 170 | 3.0 | 5.0 | 0.00 | 0.00 | 0.00 | 52 | 1006.8 |
| 20260508055906 | 96 | 309 | 3.0 | 5.0 | 0.00 | 0.00 | 0.00 | 53 | 1006.8 |
| 20260508055407 | 96 | 267 | 6.0 | 8.0 | 0.00 | 0.00 | 0.00 | 54 | 1007.1 |
| 20260508054906 | 94 | 240 | 3.0 | 3.0 | 0.00 | 0.00 | 0.00 | 58 | 1007.5 |
| 20260508054407 | 95 | 252 | 5.0 | 8.0 | 0.00 | 0.00 | 0.00 | 56 | 1007.5 |
| 20260508053906 | 95 | 247 | 4.0 | 9.0 | 0.00 | 0.00 | 0.00 | 56 | 1007.5 |
| 20260508053406 | 98 | 303 | 5.0 | 7.0 | 0.00 | 0.00 | 0.00 | 53 | 1007.1 |
| 20260508052906 | 99 | 262 | 2.0 | 5.0 | 0.00 | 0.00 | 0.00 | 50 | 1007.5 |
| 20260508052406 | 100 | 60 | 3.0 | 10.0 | 0.00 | 0.00 | 0.00 | 48 | 1007.8 |
| 20260508051906 | 99 | 64 | 7.0 | 9.0 | 0.00 | 0.00 | 0.00 | 46 | 1007.5 |
| 20260508051406 | 99 | 53 | 4.0 | 9.0 | 0.00 | 0.00 | 0.00 | 47 | 1007.5 |
| 20260508050906 | 100 | 75 | 5.0 | 8.0 | 0.00 | 0.00 | 0.00 | 47 | 1007.8 |
| 20260508050406 | 100 | 76 | 5.0 | 7.0 | 0.00 | 0.00 | 0.00 | 47 | 1007.8 |
| 20260508045906 | 99 | 91 | 6.0 | 8.0 | 0.00 | 0.00 | 0.00 | 47 | 1007.8 |
| 20260508045407 | 98 | 83 | 4.0 | 7.0 | 0.00 | 0.00 | 0.00 | 49 | 1008.5 |
| 20260508044906 | 98 | 78 | 4.0 | 8.0 | 0.00 | 0.00 | 0.00 | 48 | 1008.1 |
| 20260508044406 | 98 | 82 | 10.0 | 14.0 | 0.00 | 0.00 | 0.00 | 48 | 1007.8 |
| 20260508043906 | 98 | 17 | 1.0 | 6.0 | 0.00 | 0.00 | 0.00 | 49 | 1008.1 |
| 20260508043406 | 99 | 91 | 4.0 | 11.0 | 0.00 | 0.00 | 0.00 | 47 | 1008.5 |
| 20260508042907 | 98 | 56 | 5.0 | 8.0 | 0.00 | 0.00 | 0.00 | 47 | 1008.5 |
| 20260508042406 | 98 | 39 | 3.0 | 6.0 | 0.00 | 0.00 | 0.00 | 47 | 1008.8 |
| 20260508041907 | 96 | 76 | 3.0 | 3.0 | 0.00 | 0.00 | 0.00 | 49 | 1008.5 |
| 20260508041406 | 96 | 57 | 5.0 | 8.0 | 0.00 | 0.00 | 0.00 | 50 | 1008.5 |
| 20260508040907 | 97 | 35 | 3.0 | 8.0 | 0.00 | 0.00 | 0.00 | 50 | 1008.8 |
| 20260508040406 | 99 | 65 | 5.0 | 8.0 | 0.00 | 0.00 | 0.00 | 48 | 1008.8 |
| 20260508035906 | 98 | 29 | 1.0 | 6.0 | 0.00 | 0.00 | 0.00 | 46 | 1008.5 |
| 20260508035406 | 98 | 110 | 3.0 | 8.0 | 0.00 | 0.00 | 0.00 | 46 | 1008.8 |
| 20260508034906 | 96 | 308 | 4.0 | 6.0 | 0.00 | 0.00 | 0.00 | 49 | 1009.1 |
| 20260508034406 | 96 | 70 | 3.0 | 5.0 | 0.00 | 0.00 | 0.00 | 51 | 1009.1 |
| 20260508033909 | 95 | 71 | 2.0 | 5.0 | 0.00 | 0.00 | 0.00 | 53 | 1009.1 |
| 20260508033407 | 95 | 17 | 2.0 | 5.0 | 0.00 | 0.00 | 0.00 | 54 | 1009.1 |
| 20260508032906 | 96 | 65 | 9.0 | 11.0 | 0.00 | 0.00 | 0.00 | 50 | 1009.1 |
| 20260508032407 | 95 | 55 | 3.0 | 6.0 | 0.00 | 0.00 | 0.00 | 51 | 1009.1 |
| 20260508031906 | 94 | 82 | 4.0 | 9.0 | 0.00 | 0.00 | 0.00 | 53 | 1009.1 |
| 20260508031406 | 94 | 243 | 4.0 | 5.0 | 0.00 | 0.00 | 0.00 | 58 | 1009.5 |
| 20260508030907 | 92 | 211 | 4.0 | 7.0 | 0.00 | 0.00 | 0.00 | 61 | 1009.5 |
| 20260508030406 | 93 | 231 | 4.0 | 5.0 | 0.00 | 0.00 | 0.00 | 60 | 1009.5 |
| 20260508025906 | 94 | 225 | 7.0 | 8.0 | 0.00 | 0.00 | 0.00 | 57 | 1009.5 |
| 20260508025406 | 94 | 200 | 5.0 | 7.0 | 0.00 | 0.00 | 0.00 | 58 | 1009.8 |
| 20260508024906 | 93 | 80 | 7.0 | 11.0 | 0.00 | 0.00 | 0.00 | 58 | 1009.5 |
| 20260508024406 | 93 | 166 | 3.0 | 13.0 | 0.00 | 0.00 | 0.00 | 60 | 1009.8 |
| 20260508023907 | 95 | 212 | 1.0 | 8.0 | 0.00 | 0.00 | 0.00 | 59 | 1010.2 |
| 20260508023406 | 94 | 110 | 3.0 | 7.0 | 0.00 | 0.00 | 0.00 | 57 | 1009.8 |
| 20260508022906 | 94 | 223 | 6.0 | 8.0 | 0.00 | 0.00 | 0.00 | 58 | 1010.2 |
| 20260508022407 | 95 | 123 | 2.0 | 5.0 | 0.00 | 0.00 | 0.00 | 55 | 1010.2 |
| 20260508021907 | 95 | 168 | 3.0 | 7.0 | 0.00 | 0.00 | 0.00 | 56 | 1010.2 |
| 20260508021406 | 95 | 53 | 4.0 | 9.0 | 0.00 | 0.00 | 0.00 | 54 | 1010.2 |
| 20260508020907 | 94 | 347 | 6.0 | 11.0 | 0.00 | 0.00 | 0.00 | 56 | 1010.2 |
| 20260508020406 | 94 | 135 | 6.0 | 9.0 | 0.00 | 0.00 | 0.00 | 55 | 1010.2 |
| 20260508015906 | 94 | 65 | 3.0 | 6.0 | 0.00 | 0.00 | 0.00 | 56 | 1010.2 |
| 20260508015406 | 93 | 108 | 1.0 | 9.0 | 0.00 | 0.00 | 0.00 | 56 | 1010.2 |
| 20260508014906 | 94 | 64 | 5.0 | 9.0 | 0.00 | 0.00 | 0.00 | 55 | 1010.2 |
| 20260508014406 | 94 | 99 | 1.0 | 6.0 | 0.00 | 0.00 | 0.00 | 56 | 1010.5 |
| 20260508013906 | 93 | 49 | 2.0 | 3.0 | 0.00 | 0.00 | 0.00 | 57 | 1010.2 |
| 20260508013406 | 92 | 110 | 0.0 | 3.0 | 0.00 | 0.00 | 0.00 | 59 | 1010.2 |
| 20260508012906 | 93 | 69 | 3.0 | 6.0 | 0.00 | 0.00 | 0.00 | 59 | 1010.5 |
| 20260508012406 | 92 | 60 | 3.0 | 10.0 | 0.00 | 0.00 | 0.00 | 58 | 1010.5 |
| 20260508011906 | 93 | 141 | 3.0 | 9.0 | 0.00 | 0.00 | 0.00 | 58 | 1010.5 |
| 20260508011406 | 94 | 66 | 6.0 | 9.0 | 0.00 | 0.00 | 0.00 | 56 | 1010.5 |
| 20260508010906 | 93 | 56 | 5.0 | 7.0 | 0.00 | 0.00 | 0.00 | 58 | 1010.5 |
| 20260508010407 | 95 | 133 | 5.0 | 9.0 | 0.00 | 0.00 | 0.00 | 55 | 1010.5 |
| 20260508005907 | 93 | 68 | 2.0 | 5.0 | 0.00 | 0.00 | 0.00 | 58 | 1010.8 |
| 20260508005406 | 92 | 61 | 5.0 | 7.0 | 0.00 | 0.00 | 0.00 | 58 | 1010.8 |
| 20260508004906 | 92 | 52 | 2.0 | 8.0 | 0.00 | 0.00 | 0.00 | 60 | 1010.8 |
| 20260508004406 | 92 | 99 | 4.0 | 7.0 | 0.00 | 0.00 | 0.00 | 60 | 1010.5 |
| 20260508003907 | 92 | 122 | 3.0 | 8.0 | 0.00 | 0.00 | 0.00 | 58 | 1010.8 |
| 20260508003406 | 91 | 28 | 4.0 | 8.0 | 0.00 | 0.00 | 0.00 | 60 | 1010.8 |
| 20260508002907 | 93 | 61 | 5.0 | 9.0 | 0.00 | 0.00 | 0.00 | 57 | 1010.8 |
| 20260508002406 | 91 | 59 | 5.0 | 7.0 | 0.00 | 0.00 | 0.00 | 59 | 1010.8 |
| 20260508001906 | 92 | 67 | 4.0 | 6.0 | 0.00 | 0.00 | 0.00 | 58 | 1010.8 |
| 20260508001406 | 93 | 36 | 3.0 | 6.0 | 0.00 | 0.00 | 0.00 | 59 | 1010.5 |
| 20260508000906 | 91 | 66 | 2.0 | 3.0 | 0.00 | 0.00 | 0.00 | 60 | 1010.5 |
| 20260507234506 | 92 | 45 | 0.0 | 2.0 | 0.00 | 0.00 | 0.00 | 60 | 1010.5 |
| 20260507131608 | 87 | 50 | 6.0 | 8.0 | 0.00 | 0.00 | 0.00 | 64 | 1009.1 |
| 20260507131107 | 87 | 63 | 3.0 | 6.0 | 0.00 | 0.00 | 0.00 | 64 | 1009.1 |
| 20260507130607 | 87 | 66 | 4.0 | 5.0 | 0.00 | 0.00 | 0.00 | 64 | 1009.1 |
| 20260507130106 | 87 | 65 | 3.0 | 7.0 | 0.00 | 0.00 | 0.00 | 64 | 1009.5 |
| 20260507125606 | 87 | 66 | 3.0 | 6.0 | 0.00 | 0.00 | 0.00 | 64 | 1009.1 |
| 20260507125106 | 87 | 64 | 5.0 | 6.0 | 0.00 | 0.00 | 0.00 | 64 | 1008.8 |
| 20260507124606 | 87 | 65 | 6.0 | 10.0 | 0.00 | 0.00 | 0.00 | 64 | 1009.1 |
| 20260507124106 | 87 | 66 | 5.0 | 6.0 | 0.00 | 0.00 | 0.00 | 64 | 1009.1 |
| 20260507123606 | 87 | 49 | 3.0 | 8.0 | 0.00 | 0.00 | 0.00 | 63 | 1009.1 |
| 20260507123110 | 87 | 54 | 4.0 | 7.0 | 0.00 | 0.00 | 0.00 | 63 | 1009.1 |
| 20260507122608 | 88 | 66 | 4.0 | 7.0 | 0.00 | 0.00 | 0.00 | 63 | 1009.1 |
| 20260507122106 | 88 | 68 | 4.0 | 6.0 | 0.00 | 0.00 | 0.00 | 63 | 1008.8 |
| 20260507121607 | 88 | 28 | 3.0 | 7.0 | 0.00 | 0.00 | 0.00 | 63 | 1008.8 |
| 20260507121106 | 88 | 48 | 2.0 | 5.0 | 0.00 | 0.00 | 0.00 | 62 | 1008.8 |
| 20260507120607 | 88 | 67 | 2.0 | 5.0 | 0.00 | 0.00 | 0.00 | 62 | 1008.8 |
| 20260507120107 | 88 | 93 | 5.0 | 8.0 | 0.00 | 0.00 | 0.00 | 62 | 1008.5 |
| 20260507115607 | 88 | 83 | 2.0 | 5.0 | 0.00 | 0.00 | 0.00 | 61 | 1008.5 |